This is the latest recevied weather packets stored in our database for station/object W4FXD. If no packets are shown the sender has not sent any weather packets the latest 10 day(s).
| Time | Temp. | Humidity | Pressure | Rain* | Wind** | Luminosity | Snow |
|---|---|---|---|---|---|---|---|
| 1777481611 | 19.44° C | 90% | 1012.8 hPa | 0 mm | - | 154 W/m² | - |
| 1777481307 | 19.44° C | 90% | 1012.6 hPa | 0 mm | - | 148 W/m² | - |
| 1777481004 | 19.44° C | 90% | 1012.4 hPa | 0 mm | - | 179 W/m² | - |
| 1777480700 | 19.44° C | 90% | 1012.7 hPa | 0 mm | - | 226 W/m² | - |
| 1777480397 | 19.44° C | 90% | 1012.8 hPa | 0 mm | - | 173 W/m² | - |
| 1777480093 | 19.44° C | 90% | 1012.6 hPa | 0 mm | - | 123 W/m² | - |
| 1777479789 | 19.44° C | 90% | 1012.9 hPa | 0 mm | - | 138 W/m² | - |
| 1777479487 | 18.89° C | 90% | 1013 hPa | 0 mm | - | 166 W/m² | - |
| 1777479184 | 18.89° C | 90% | 1012.7 hPa | 0 mm | - | 220 W/m² | - |
| 1777478880 | 18.89° C | 91% | 1012.9 hPa | 0 mm | - | 251 W/m² | - |
| 1777478576 | 18.33° C | 92% | 1012.9 hPa | 0 mm | - | 144 W/m² | - |
| 1777478274 | 18.33° C | 92% | 1012.8 hPa | 0 mm | - | 124 W/m² | - |
| 1777477970 | 18.33° C | 92% | 1013.2 hPa | 0 mm | - | 63 W/m² | - |
| 1777477665 | 18.33° C | 92% | 1013.4 hPa | 0 mm | - | 66 W/m² | - |
| 1777477363 | 18.33° C | 91% | 1013.3 hPa | 0 mm | - | 57 W/m² | - |
| 1777477059 | 18.33° C | 92% | 1013.3 hPa | 0 mm | - | 87 W/m² | - |
| 1777476757 | 18.33° C | 91% | 1013.3 hPa | 0 mm | - | 70 W/m² | - |
| 1777476453 | 18.33° C | 91% | 1013.4 hPa | 0 mm | - | 81 W/m² | - |
| 1777476150 | 18.33° C | 91% | 1013.4 hPa | 0 mm | - | 76 W/m² | - |
| 1777475845 | 18.33° C | 91% | 1013.4 hPa | 0 mm | - | 59 W/m² | - |
| 1777475541 | 18.33° C | 90% | 1013.1 hPa | 0 mm | - | 71 W/m² | - |
| 1777475238 | 18.33° C | 90% | 1013.2 hPa | 0 mm | - | 87 W/m² | - |
| 1777474933 | 18.33° C | 90% | 1013 hPa | 0 mm | - | 55 W/m² | - |
| 1777474629 | 18.33° C | 89% | 1013.1 hPa | 0 mm | - | 67 W/m² | - |
| 1777474326 | 18.89° C | 89% | 1013.2 hPa | 0 mm | - | 122 W/m² | - |
* Rain latest hour (hover to see other rain measurements)
** Current wind speed in m/s (hover to see current wind gust speed)